dimanche 21 septembre 2014

Suivez nous sur

Facebook

Construction amateur

La construction amateur d'aéronefs existe depuis longtemps à Béziers, avec par exemple en vol un Bilouis (avion de voltige), un MCR (avion à construire en kit), et un Jodel D18. Elle s'est structuré récemment avec la création fin 2011 d'un club RSA Béziers.
Depuis nous avons eu la mise en vol de 2 avions Gaz'aile 2, avions à moteur diesel, et tout récemment d'un Jodel D112 motorisé avec le moteur 6 cylindres Jabiru 3300 de 120 cv. Le Jodel D18 a changé de propriétaire, mais il est resté dans l'association, et un BB Jodel vient de nous rejoindre.
Le parc Biterrois est donc actuellement de 6 machines. Il y en a une autre en construction qui avance à grands pas, un troisième Gaz'aile 2.

METAR
LFMU 210530Z AUTO 27004KT 9999 NSC 19/16 Q1017 =
TAF
TAF LFMU 210500Z 2106/2206 27010KT CAVOK BECMG 2109/2111 34013KT TEMPO 2117/2120 22010KT BECMG 2123/2201 VRB03KT =